AUA106 LHBP-LOWW

Flight info

Callsign AUA106
Flight time 0h 28m
Altitude 18000
Route GILEP DCT NATEX NATEX2W
Aircraft A320/M-SDE3FGHIRWY/LB1

Departure

Time 2026-04-26 16:34
Airport Budapest Liszt Ferenc International Airport (LHBP)

Arrival

Time 2026-04-26 17:02
Airport Vienna International Airport (LOWW)
Time Latitude Longitude Altitude Speed Heading
2026-04-26 16:18 47.43423 19.26303 483 ft 0 kts 224°
2026-04-26 16:25 47.43434 19.26318 474 ft 4 kts 224°
2026-04-26 16:25 47.43448 19.26338 476 ft 4 kts 258°
2026-04-26 16:25 47.43441 19.26360 476 ft 3 kts 313°
2026-04-26 16:26 47.43438 19.26365 477 ft 0 kts 312°
2026-04-26 16:28 47.43440 19.26361 476 ft 4 kts 312°
2026-04-26 16:28 47.43481 19.26313 477 ft 9 kts 326°
2026-04-26 16:28 47.43536 19.26262 482 ft 10 kts 327°
2026-04-26 16:29 47.43588 19.26198 482 ft 10 kts 315°
2026-04-26 16:29 47.43639 19.26122 483 ft 11 kts 314°
2026-04-26 16:29 47.43693 19.26038 479 ft 9 kts 312°
2026-04-26 16:29 47.43730 19.25977 483 ft 7 kts 310°
2026-04-26 16:30 47.43733 19.25917 486 ft 8 kts 243°
2026-04-26 16:30 47.43695 19.25860 485 ft 8 kts 221°
2026-04-26 16:30 47.43655 19.25807 480 ft 8 kts 223°
2026-04-26 16:30 47.43598 19.25730 480 ft 13 kts 223°
2026-04-26 16:31 47.43531 19.25637 475 ft 13 kts 223°
2026-04-26 16:31 47.43462 19.25545 475 ft 14 kts 223°
2026-04-26 16:31 47.43391 19.25450 472 ft 15 kts 221°
2026-04-26 16:31 47.43307 19.25338 466 ft 18 kts 223°
2026-04-26 16:32 47.43209 19.25205 459 ft 18 kts 222°
2026-04-26 16:32 47.43159 19.25137 458 ft 13 kts 223°
2026-04-26 16:32 47.43150 19.25125 458 ft 0 kts 223°
2026-04-26 16:32 47.43116 19.25078 458 ft 17 kts 224°
2026-04-26 16:33 47.43091 19.24948 456 ft 12 kts 307°
2026-04-26 16:33 47.43110 19.24915 457 ft 19 kts 311°
2026-04-26 16:33 47.43383 19.24479 454 ft 92 kts 313°
2026-04-26 16:33 47.43933 19.23591 461 ft 143 kts 313°
2026-04-26 16:34 47.44628 19.22522 1111 ft 144 kts 314°
2026-04-26 16:34 47.45306 19.21411 1871 ft 149 kts 312°
2026-04-26 16:34 47.46052 19.20193 2332 ft 171 kts 312°
2026-04-26 16:34 47.46904 19.18807 2681 ft 194 kts 312°
2026-04-26 16:35 47.47857 19.17257 3096 ft 215 kts 312°
2026-04-26 16:35 47.48657 19.15336 3837 ft 225 kts 291°
2026-04-26 16:35 47.48886 19.12950 4439 ft 250 kts 268°
2026-04-26 16:35 47.48328 19.10435 5227 ft 268 kts 242°
2026-04-26 16:36 47.46979 19.08458 6107 ft 283 kts 214°
2026-04-26 16:36 47.45204 19.07114 6766 ft 290 kts 209°
2026-04-26 16:36 47.43389 19.05815 7193 ft 291 kts 209°
2026-04-26 16:36 47.41559 19.04517 8119 ft 292 kts 209°
2026-04-26 16:37 47.39719 19.03207 9012 ft 295 kts 209°
2026-04-26 16:37 47.37881 19.01892 9894 ft 299 kts 210°
2026-04-26 16:37 47.35986 19.00510 10504 ft 312 kts 212°
2026-04-26 16:37 47.33997 18.98955 10772 ft 335 kts 211°
2026-04-26 16:38 47.32046 18.97013 11316 ft 340 kts 228°
2026-04-26 16:38 47.30696 18.94197 12034 ft 336 kts 250°
2026-04-26 16:38 47.30201 18.90869 12803 ft 332 kts 272°
2026-04-26 16:38 47.30605 18.87555 13580 ft 330 kts 293°
2026-04-26 16:39 47.31687 18.84558 14290 ft 332 kts 301°
2026-04-26 16:39 47.32838 18.81643 14990 ft 334 kts 301°
2026-04-26 16:39 47.34006 18.78658 15672 ft 337 kts 299°
2026-04-26 16:39 47.35106 18.75578 16351 ft 340 kts 297°
2026-04-26 16:40 47.36139 18.72427 17036 ft 343 kts 296°
2026-04-26 16:40 47.37146 18.69220 17706 ft 345 kts 295°
2026-04-26 16:40 47.38152 18.65977 18097 ft 348 kts 295°
2026-04-26 16:40 47.39162 18.62741 18170 ft 346 kts 295°
2026-04-26 16:41 47.40177 18.59523 18181 ft 346 kts 295°
2026-04-26 16:41 47.41190 18.56353 18192 ft 346 kts 296°
2026-04-26 16:41 47.42224 18.53140 18196 ft 345 kts 296°
2026-04-26 16:41 47.43261 18.49931 18199 ft 345 kts 296°
2026-04-26 16:42 47.44293 18.46730 18194 ft 345 kts 296°
2026-04-26 16:42 47.45321 18.43522 18198 ft 345 kts 296°
2026-04-26 16:42 47.46347 18.40311 18202 ft 345 kts 295°
2026-04-26 16:42 47.47371 18.37099 18203 ft 345 kts 295°
2026-04-26 16:43 47.48394 18.33886 18205 ft 345 kts 295°
2026-04-26 16:43 47.49402 18.30717 18201 ft 345 kts 295°
2026-04-26 16:43 47.50423 18.27496 18208 ft 346 kts 295°
2026-04-26 16:43 47.51386 18.24241 18211 ft 346 kts 293°
2026-04-26 16:44 47.52292 18.20944 18211 ft 346 kts 292°
2026-04-26 16:44 47.53169 18.17621 18216 ft 346 kts 291°
2026-04-26 16:44 47.54038 18.14301 18218 ft 346 kts 291°
2026-04-26 16:44 47.54912 18.10978 18224 ft 346 kts 291°
2026-04-26 16:45 47.55794 18.07664 18223 ft 346 kts 292°
2026-04-26 16:45 47.56682 18.04349 18221 ft 346 kts 292°
2026-04-26 16:45 47.57572 18.01034 18223 ft 346 kts 292°
2026-04-26 16:45 47.58450 17.97766 18222 ft 346 kts 292°
2026-04-26 16:46 47.59328 17.94495 17968 ft 337 kts 292°
2026-04-26 16:46 47.60192 17.91263 17699 ft 329 kts 292°
2026-04-26 16:46 47.61013 17.88178 17441 ft 324 kts 292°
2026-04-26 16:46 47.61841 17.85076 17178 ft 322 kts 292°
2026-04-26 16:47 47.62664 17.81993 16917 ft 321 kts 292°
2026-04-26 16:47 47.63483 17.78922 16659 ft 320 kts 292°
2026-04-26 16:47 47.64296 17.75862 16402 ft 319 kts 292°
2026-04-26 16:47 47.65106 17.72806 16155 ft 318 kts 292°
2026-04-26 16:48 47.65913 17.69759 15902 ft 317 kts 292°
2026-04-26 16:48 47.66710 17.66754 15658 ft 316 kts 292°
2026-04-26 16:48 47.67512 17.63724 15411 ft 315 kts 292°
2026-04-26 16:48 47.68310 17.60699 15168 ft 314 kts 292°
2026-04-26 16:49 47.69106 17.57675 14922 ft 313 kts 292°
2026-04-26 16:49 47.69897 17.54671 14682 ft 312 kts 292°
2026-04-26 16:49 47.70685 17.51675 14443 ft 311 kts 292°
2026-04-26 16:49 47.71471 17.48682 14206 ft 310 kts 292°
2026-04-26 16:50 47.72253 17.45694 13962 ft 309 kts 292°
2026-04-26 16:50 47.73029 17.42721 13695 ft 308 kts 292°
2026-04-26 16:50 47.73808 17.39747 13429 ft 308 kts 292°
2026-04-26 16:50 47.74580 17.36799 13169 ft 303 kts 292°
2026-04-26 16:51 47.75330 17.33934 12804 ft 300 kts 292°
2026-04-26 16:51 47.76083 17.31047 12370 ft 300 kts 292°
2026-04-26 16:51 47.76834 17.28155 11963 ft 298 kts 291°
2026-04-26 16:51 47.77577 17.25276 11563 ft 297 kts 291°
2026-04-26 16:52 47.78321 17.22389 11005 ft 301 kts 291°
2026-04-26 16:52 47.78566 17.21442 10809 ft 303 kts 291°
2026-04-26 16:52 47.79831 17.16573 10022 ft 303 kts 291°
2026-04-26 16:52 47.80586 17.13653 9566 ft 301 kts 291°
2026-04-26 16:53 47.81335 17.10752 9121 ft 299 kts 291°
2026-04-26 16:53 47.82078 17.07868 8666 ft 298 kts 291°
2026-04-26 16:53 47.82816 17.05002 8218 ft 296 kts 291°
2026-04-26 16:53 47.83554 17.02145 7773 ft 294 kts 291°
2026-04-26 16:54 47.84284 16.99314 7345 ft 292 kts 291°
2026-04-26 16:54 47.85006 16.96503 6905 ft 290 kts 291°
2026-04-26 16:54 47.85713 16.93736 6462 ft 289 kts 291°
2026-04-26 16:54 47.86429 16.90932 5956 ft 288 kts 291°
2026-04-26 16:55 47.87139 16.88148 5487 ft 287 kts 291°
2026-04-26 16:55 47.87847 16.85375 5074 ft 283 kts 292°
2026-04-26 16:55 47.88527 16.82699 4946 ft 269 kts 291°
2026-04-26 16:55 47.89167 16.80185 4819 ft 256 kts 291°
2026-04-26 16:56 47.90359 16.75503 4561 ft 223 kts 292°
2026-04-26 16:56 47.90887 16.73423 4435 ft 205 kts 292°
2026-04-26 16:56 47.91379 16.71477 4328 ft 195 kts 292°
2026-04-26 16:57 47.91841 16.69651 4211 ft 182 kts 292°
2026-04-26 16:57 47.92135 16.68491 4064 ft 178 kts 292°
2026-04-26 16:57 47.93995 16.65417 3786 ft 176 kts 336°
2026-04-26 16:58 47.95125 16.64920 3618 ft 164 kts 340°
2026-04-26 16:58 47.95495 16.64766 3541 ft 162 kts 340°
2026-04-26 16:58 47.97974 16.63723 3050 ft 158 kts 340°
2026-04-26 16:59 47.99035 16.63277 2844 ft 158 kts 340°
2026-04-26 16:59 48.01148 16.62387 2425 ft 155 kts 339°
2026-04-26 17:00 48.03062 16.61583 2054 ft 137 kts 338°
2026-04-26 17:00 48.04884 16.60813 1631 ft 137 kts 339°
2026-04-26 17:00 48.05789 16.60403 1371 ft 134 kts 340°
2026-04-26 17:01 48.06678 16.59961 1105 ft 133 kts 345°
2026-04-26 17:01 48.07579 16.59597 854 ft 134 kts 348°
2026-04-26 17:01 48.08463 16.59296 719 ft 131 kts 343°
2026-04-26 17:01 48.09332 16.58928 631 ft 122 kts 346°
2026-04-26 17:02 48.09920 16.58688 614 ft 57 kts 345°
2026-04-26 17:02 48.10262 16.58544 614 ft 44 kts 344°
2026-04-26 17:02 48.10428 16.58339 625 ft 19 kts 301°
2026-04-26 17:02 48.10451 16.58288 616 ft 2 kts 304°
2026-04-26 17:03 48.10494 16.58193 623 ft 14 kts 310°
2026-04-26 17:03 48.10585 16.58123 609 ft 16 kts 344°
2026-04-26 17:03 48.10697 16.58078 614 ft 18 kts 345°
2026-04-26 17:03 48.10820 16.58027 619 ft 19 kts 345°
2026-04-26 17:04 48.10948 16.57973 617 ft 19 kts 344°
2026-04-26 17:04 48.11075 16.57920 621 ft 15 kts 339°
2026-04-26 17:04 48.11132 16.57790 613 ft 16 kts 295°
2026-04-26 17:04 48.11185 16.57629 618 ft 18 kts 296°
2026-04-26 17:05 48.11244 16.57447 620 ft 20 kts 296°
2026-04-26 17:05 48.11308 16.57253 614 ft 22 kts 296°
2026-04-26 17:05 48.11377 16.57041 623 ft 23 kts 296°
2026-04-26 17:05 48.11450 16.56820 618 ft 23 kts 295°
2026-04-26 17:06 48.11516 16.56615 617 ft 17 kts 296°
2026-04-26 17:06 48.11570 16.56447 620 ft 17 kts 295°
2026-04-26 17:06 48.11623 16.56283 620 ft 18 kts 296°
2026-04-26 17:06 48.11705 16.56274 615 ft 13 kts 25°
2026-04-26 17:07 48.11757 16.56360 616 ft 7 kts 109°
2026-04-26 17:07 48.11753 16.56367 609 ft 2 kts 115°
2026-04-26 17:07 48.11740 16.56424 614 ft 7 kts 112°
2026-04-26 17:07 48.11716 16.56474 622 ft 5 kts 161°
2026-04-26 17:08 48.11686 16.56467 609 ft 4 kts 201°
2026-04-26 17:08 48.11667 16.56453 609 ft 2 kts 206°
2026-04-26 17:08 48.11655 16.56444 609 ft 1 kts 206°
2026-04-26 17:08 48.11651 16.56441 609 ft 0 kts 206°